[[{"header":{"parameterUnit":"m.s-1","parameterCategory":2,"la1":30.2991,"la2":30.254,"lo1":-89.0895,"lo2":-89.0444,"dy":0.0017,"dx":0.0017,"nx":28,"ny":28,"refTime":"2025-01-31T03:00:00:Z","depth":"0","parameterNumber":2,"parameterNumberName":"U-component_of_CURRENTS"},"data":[0,0,0,0,0,0,0,0,0,0,0,0,0,0,0,0,0,0,0,0,0,0,0,0,0,0,0,0,0,0,0,0,0,0,0,0,0,0,0,0,0,0,0,0,0,0,0,0,0,0,0,0,0,0,0,0,0,0,0.2039,0.204,0,0.2056,0.2056,0.2056,0.205,0.205,0.2049,0.2049,0.2024,0.2024,0.2023,0,0,0,0,0,0,0,0,0,0,0,0,0,0.2018,0.2018,0.2039,0.204,0.204,0.2056,0.2056,0.2056,0.205,0.205,0.2049,0.2049,0.2025,0.2024,0.2023,0,0,0,0,0,0,0,0,0,0,0,0,0,0.2028,0.2018,0.2039,0.2041,0.2041,0.2056,0.2056,0.2056,0.205,0.205,0.2049,0.2049,0.2025,0.2024,0.2023,0.2024,0,0,0.2021,0.2021,0,0,0,0,0,0,0,0,0.2028,0.2029,0.204,0.2041,0.2041,0.2052,0.2039,0.2044,0.205,0.2044,0.2049,0.2049,0.2032,0.203,0.2031,0.2023,0.2021,0.2021,0.202,0.202,0.202,0,0,0,0,0,0,0,0.2027,0.2028,0.2044,0.2041,0.2041,0.2046,0.2047,0.204,0.2037,0.2045,0.2045,0.205,0.2031,0.2032,0.2031,0.2021,0.2021,0.202,0.202,0.2019,0.2036,0.2037,0,0,0,0,0,0,0.2029,0.2027,0.2043,0.2044,0.2036,0.2047,0.2047,0.2047,0.2038,0.2037,0.205,0.205,0.2033,0.2031,0.203,0.2049,0.202,0.2019,0.2019,0.2035,0.2036,0.2037,0,0,0,0,0,0,0.2028,0.203,0.2043,0.2038,0.2041,0.2047,0.2047,0.2048,0.2053,0.2043,0.2041,0.2056,0.2033,0.2031,0.2033,0.2047,0.2019,0.2018,0.2034,0.2036,0.2037,0.2075,0,0,0,0,0,0,0.2027,0.2029,0.2031,0.2038,0.2041,0.2058,0.2048,0.2048,0.2058,0.2058,0.2047,0.2044,0.2033,0.2034,0.2032,0.2046,0.2018,0.2033,0.2035,0.2036,0.2073,0.2078,0.2082,0,0,0,0,0,0.2026,0.2033,0.203,0.2033,0.2042,0.2059,0.2061,0.2063,0.2059,0.2066,0.206,0.2045,0.2043,0.2034,0.2031,0.2045,0.2032,0.2034,0.2036,0.2071,0.2077,0.2082,0,0,0,0,0,0,0.2021,0.2033,0.2031,0.2039,0.205,0.2059,0.2064,0.2068,0.2069,0.2065,0.2053,0.2051,0.206,0.2048,0.2038,0.2056,0.2037,0.2038,0.2064,0.2069,0.2074,0.2087,0.2017,0,0,0,0,0,0.2021,0.2031,0.2041,0.2048,0.2051,0.2058,0.2065,0.2068,0.2072,0.2072,0.2067,0.2062,0.2066,0.2064,0.2062,0.2068,0.2081,0.2077,0.2082,0.2086,0.2095,0.2133,0.2142,0.2044,0.2044,0.2044,0,0,0.202,0.203,0.2034,0.2048,0.2051,0.2065,0.206,0.2072,0.2087,0.2068,0.2079,0.2077,0.2073,0.2083,0.2086,0.2074,0.2121,0.2088,0.2091,0.2099,0.2136,0.2146,0.2155,0.2045,0.2045,0.2045,0,0,0.2029,0.203,0.204,0.205,0.2063,0.2073,0.2079,0.209,0.2095,0.2107,0.2102,0.2113,0.2108,0.2116,0.2117,0.2147,0.2146,0.2143,0.2173,0.221,0.2218,0.2226,0.2257,0.2267,0.2143,0.2143,0.2143,0,0.2027,0.2038,0.2047,0.2059,0.2069,0.2078,0.2092,0.2104,0.2116,0.2125,0.2114,0.2134,0.2127,0.2155,0.2167,0.2158,0.2177,0.2151,0.2216,0.2224,0.2231,0.2262,0.2272,0.2145,0.2145,0.2144,0.2144,0,0.2041,0.205,0.2056,0.2075,0.2092,0.2103,0.2122,0.2139,0.2145,0.2155,0.218,0.218,0.2194,0.2195,0.2188,0.2237,0.2234,0.222,0.2203,0.2244,0.2273,0.2283,0.2148,0.2147,0.2146,0.2146,0,0,0.2036,0.2061,0.2062,0.2069,0.2098,0.2111,0.2144,0.2174,0.2195,0.2207,0.2237,0.2251,0.2252,0.2256,0.2255,0.2286,0.2351,0.2277,0.2278,0.231,0.2437,0.2401,0.2409,0.2351,0.2353,0.2355,0.2438,0,0.2041,0.206,0.2079,0.2102,0.2111,0.2137,0.2169,0.2198,0.222,0.2251,0.2266,0.2287,0.2275,0.2285,0.2318,0.2344,0.2381,0.233,0.2392,0.2394,0.2358,0.2421,0.2307,0.2369,0.2448,0.245,0.2451,0,0.2045,0.2059,0.2076,0.211,0.2117,0.2137,0.2187,0.2215,0.2265,0.2284,0.2317,0.2328,0.2378,0.2357,0.2437,0.2407,0.2431,0.2449,0.2452,0.2413,0.2378,0.2341,0.2385,0.2319,0.2467,0.2466,0.2465,0,0.2026,0.2057,0.2069,0.2078,0.212,0.2138,0.2166,0.2218,0.2249,0.2305,0.234,0.2386,0.2421,0.2462,0.2501,0.2476,0.2589,0.2554,0.2548,0.2545,0.2458,0.2444,0.2445,0.262,0.262,0.262,0.262,0,0.2016,0.2024,0.2057,0.2059,0.2086,0.212,0.2156,0.2197,0.2258,0.23,0.235,0.2401,0.2452,0.2514,0.2535,0.2583,0.2619,0.2574,0.2573,0.2467,0.2454,0.2398,0.2375,0.2623,0.2622,0.2622,0.2621,0,0.1982,0.2003,0.2018,0.2059,0.2072,0.2087,0.2146,0.2178,0.2244,0.2308,0.2331,0.243,0.2513,0.2564,0.264,0.2628,0.2596,0.2676,0.2548,0.2529,0.243,0.2413,0.2349,0.2283,0.2676,0.2676,0.2675,0,0.1963,0.1966,0.2006,0.2017,0.203,0.2061,0.2091,0.216,0.2198,0.2323,0.2355,0.2463,0.2526,0.2633,0.263,0.2667,0.2601,0.2584,0.251,0.2429,0.2411,0.2316,0.2258,0.2414,0.2412,0.241,0.2408,0,0.1929,0.1944,0.196,0.1977,0.2002,0.2039,0.2082,0.2114,0.2204,0.2263,0.2353,0.2414,0.2519,0.251,0.2565,0.2567,0.2446,0.2545,0.2495,0.2243,0.2107,0.2039,0.2357,0.2391,0.2393,0.2394,0.2395,0.2396,0.1906,0.191,0.1928,0.1939,0.1967,0.2002,0.2008,0.2066,0.2117,0.218,0.2286,0.2324,0.2384,0.2437,0.2429,0.2332,0.2336,0.2255,0.2256,0.2179,0.2063,0.2345,0.2353,0.2354,0.2355,0.2356,0.2357,0,0.1871,0.1878,0.1889,0.1903,0.1902,0.194,0.1989,0.1979,0.2003,0.2072,0.2123,0.2145,0.2155,0.2181,0.2134,0.2048,0.1946,0.2002,0.184,0.1809,0.2093,0.2028,0.1922,0.1922,0.1922,0.1923,0.1923,0.1923,0.1855,0.1846,0.185,0.1828,0.1834,0.1822,0.1834,0.183,0.1847,0.1829,0.1812,0.1859,0.1953,0.1985,0.1887,0.1837,0.1701,0.1625,0.1647,0.1846,0.1868,0.1889,0.1823,0.1676,0.1675,0.1257,0.1254,0.1252]},{"header":{"parameterUnit":"m.s-1","parameterCategory":2,"la1":30.2991,"la2":30.254,"lo1":-89.0895,"lo2":-89.0444,"dy":0.0017,"dx":0.0017,"nx":28,"ny":28,"refTime":"2025-01-31T03:00:00:Z","depth":"0","parameterNumber":3,"parameterNumberName":"V-component_of_CURRENTS"},"data":[0,0,0,0,0,0,0,0,0,0,0,0,0,0,0,0,0,0,0,0,0,0,0,0,0,0,0,0,0,0,0,0,0,0,0,0,0,0,0,0,0,0,0,0,0,0,0,0,0,0,0,0,0,0,0,0,0,0,-0.0063,-0.0063,0,-0.0081,-0.0081,-0.0081,-0.0099,-0.01,-0.01,-0.01,-0.0129,-0.0129,-0.013,0,0,0,0,0,0,0,0,0,0,0,0,0,-0.0062,-0.0062,-0.0063,-0.0063,-0.0063,-0.0081,-0.0081,-0.0081,-0.0099,-0.01,-0.01,-0.01,-0.0129,-0.0129,-0.013,0,0,0,0,0,0,0,0,0,0,0,0,0,-0.007,-0.0062,-0.0063,-0.0074,-0.0075,-0.0081,-0.0081,-0.0082,-0.0099,-0.01,-0.01,-0.01,-0.0128,-0.0129,-0.013,-0.0129,0,0,-0.0133,-0.0133,0,0,0,0,0,0,0,0,-0.0069,-0.007,-0.0072,-0.0074,-0.0075,-0.0088,-0.0091,-0.0098,-0.0099,-0.0091,-0.01,-0.01,-0.0116,-0.0118,-0.0121,-0.013,-0.0131,-0.0133,-0.0133,-0.0134,-0.0134,0,0,0,0,0,0,0,-0.0069,-0.0069,-0.007,-0.0073,-0.0074,-0.0085,-0.0086,-0.0093,-0.0102,-0.0091,-0.0093,-0.0094,-0.0117,-0.012,-0.0121,-0.0132,-0.0133,-0.0133,-0.0134,-0.0134,-0.0142,-0.0142,0,0,0,0,0,0,-0.0065,-0.0069,-0.007,-0.0071,-0.0073,-0.0084,-0.0086,-0.0084,-0.0101,-0.0104,-0.0094,-0.0095,-0.0118,-0.012,-0.0122,-0.0114,-0.0134,-0.0134,-0.0135,-0.0142,-0.0142,-0.0142,0,0,0,0,0,0,-0.0064,-0.0064,-0.0069,-0.007,-0.0072,-0.0084,-0.0082,-0.0084,-0.0088,-0.0103,-0.0106,-0.0095,-0.0118,-0.0121,-0.0127,-0.0116,-0.0135,-0.0135,-0.0143,-0.0142,-0.0142,-0.0102,0,0,0,0,0,0,-0.0064,-0.0064,-0.0062,-0.007,-0.0071,-0.0065,-0.0081,-0.0084,-0.0088,-0.0089,-0.0105,-0.0108,-0.0119,-0.0126,-0.0128,-0.0117,-0.0136,-0.0143,-0.0142,-0.0142,-0.0104,-0.01,-0.0098,0,0,0,0,0,-0.0064,-0.0055,-0.0062,-0.0062,-0.0067,-0.0064,-0.0066,-0.0076,-0.0087,-0.0082,-0.0097,-0.0108,-0.0124,-0.0126,-0.0129,-0.0118,-0.0143,-0.0143,-0.0142,-0.0105,-0.0101,-0.0098,0,0,0,0,0,0,-0.0051,-0.0056,-0.0064,-0.0056,-0.0058,-0.0067,-0.0064,-0.0074,-0.0082,-0.0084,-0.0104,-0.0108,-0.011,-0.012,-0.0122,-0.0119,-0.0135,-0.0135,-0.0106,-0.0102,-0.0099,-0.0084,-0.0137,0,0,0,0,0,-0.0048,-0.0044,-0.005,-0.0044,-0.0043,-0.0055,-0.0056,-0.0061,-0.007,-0.0074,-0.0087,-0.01,-0.0108,-0.011,-0.012,-0.0117,-0.0121,-0.0112,-0.0109,-0.0106,-0.0096,-0.0097,-0.0093,-0.0139,-0.0139,-0.0139,0,0,-0.0042,-0.0045,-0.0043,-0.0042,-0.0045,-0.0034,-0.0056,-0.0052,-0.0043,-0.0075,-0.0071,-0.0091,-0.0106,-0.0104,-0.0105,-0.011,-0.0094,-0.0105,-0.0102,-0.0093,-0.0096,-0.0091,-0.0087,-0.0139,-0.0139,-0.0139,0,0,-0.002,-0.0029,-0.0015,-0.0012,-0.0013,-0.0019,-0.0017,-0.0023,-0.0026,-0.0027,-0.0048,-0.006,-0.0072,-0.0079,-0.0085,-0.007,-0.008,-0.0075,-0.0041,-0.0043,-0.0039,-0.0035,-0.0029,-0.0026,-0.0069,-0.0069,-0.0069,0,-0.0012,0.0004,-0.001,0.0007,0.0013,-0.001,0.0011,0.0006,-0.0003,0.0,-0.0019,-0.0038,-0.0058,-0.005,-0.0049,-0.0061,-0.0061,-0.0054,-0.0038,-0.0035,-0.0032,-0.0026,-0.0023,-0.0067,-0.0067,-0.0068,-0.0068,0,0.0023,0.0036,0.0046,0.0057,0.0061,0.0075,0.0069,0.007,0.0056,0.0048,0.0047,0.0017,0.0007,-0.0003,-0.0023,-0.001,-0.0016,-0.0036,-0.0045,-0.0024,-0.002,-0.0017,-0.0064,-0.0065,-0.0066,-0.0066,0,0,0.0043,0.0067,0.0071,0.0089,0.009,0.0102,0.0114,0.0123,0.0139,0.0115,0.0133,0.0101,0.0078,0.0069,0.0042,0.0038,0.005,0.0013,0.0012,0.0025,0.0056,0.0044,0.0046,0.0033,0.0034,0.0034,0.0053,0,0.0076,0.0122,0.0121,0.0161,0.0184,0.0172,0.0187,0.019,0.0183,0.0194,0.0161,0.0158,0.0108,0.0102,0.009,0.0062,0.0059,0.0047,0.003,0.003,0.002,0.005,0.0051,0.0066,0.0055,0.0056,0.0056,0,0.0115,0.0139,0.0187,0.0221,0.023,0.0246,0.027,0.0284,0.0286,0.028,0.0268,0.0238,0.0224,0.0175,0.0144,0.014,0.0103,0.0077,0.0077,0.0056,0.0023,0.0042,0.0072,-0.0014,0.0061,0.006,0.006,0,0.0144,0.0188,0.0228,0.024,0.0269,0.0287,0.0301,0.031,0.0335,0.0335,0.0352,0.0318,0.0312,0.0261,0.0194,0.0172,0.0167,0.0128,0.0085,0.0084,0.0077,0.0074,0.0027,0.0109,0.0109,0.0109,0.0109,0,0.0185,0.0218,0.0246,0.027,0.032,0.0324,0.0374,0.0382,0.0404,0.045,0.0398,0.0429,0.0333,0.031,0.0236,0.0181,0.0197,0.0104,0.0091,0.0091,0.0089,0.0006,-0.0048,0.011,0.0109,0.0109,0.0109,0,0.0217,0.0235,0.0285,0.0321,0.0337,0.0373,0.0425,0.0462,0.0474,0.0536,0.0539,0.0521,0.0493,0.0402,0.033,0.0245,0.0136,0.0156,0.0165,0.0152,0.0017,-0.0034,-0.0089,-0.0123,0.0114,0.0114,0.0114,0,0.0242,0.0269,0.0323,0.0357,0.0376,0.0428,0.0466,0.0492,0.0538,0.0604,0.0643,0.063,0.0645,0.0534,0.0376,0.0255,0.0157,0.016,0.0108,0.0023,-0.0044,-0.0086,-0.0112,0.0118,0.0118,0.0118,0.0118,0,0.0284,0.0298,0.0337,0.0404,0.0451,0.0513,0.0572,0.062,0.0668,0.0736,0.0824,0.0845,0.0732,0.0608,0.0414,0.0316,0.0096,0.0154,0.0065,-0.0041,-0.0086,-0.0128,0.0095,0.0117,0.0117,0.0117,0.0117,0.0117,0.031,0.0345,0.0392,0.0458,0.0517,0.0593,0.066,0.0735,0.0835,0.0957,0.0964,0.1034,0.0819,0.056,0.04,0.01,0.0097,0.0005,-0.0046,-0.0077,-0.0124,0.0102,0.0104,0.0104,0.0104,0.0104,0.0104,0,0.0342,0.0382,0.0446,0.0526,0.0598,0.0621,0.073,0.0813,0.0954,0.1066,0.116,0.1105,0.084,0.0553,0.014,-0.0065,-0.0143,-0.0173,-0.0236,-0.0251,-0.0047,-0.0063,-0.0095,-0.0095,-0.0095,-0.0095,-0.0095,-0.0095,0.0363,0.0422,0.0456,0.0578,0.064,0.0749,0.0821,0.0957,0.1063,0.1231,0.1287,0.1306,0.1083,0.0334,-0.0148,-0.0252,-0.0393,-0.0427,-0.0487,-0.0361,-0.0349,-0.0337,-0.0365,-0.046,-0.046,-0.0665,-0.0667,-0.0669]}],[{"header":{"parameterUnit":"m.s-1","parameterCategory":2,"la1":30.2991,"la2":30.254,"lo1":-89.0895,"lo2":-89.0444,"dy":0.0017,"dx":0.0017,"nx":28,"ny":28,"refTime":"2025-01-31T03:00:00:Z","depth":"2","parameterNumber":2,"parameterNumberName":"U-component_of_CURRENTS"},"data":[0,0,0,0,0,0,0,0,0,0,0,0,0,0,0,0,0,0,0,0,0,0,0,0,0,0,0,0,0,0,0,0,0,0,0,0,0,0,0,0,0,0,0,0,0,0,0,0,0,0,0,0,0,0,0,0,0,0,0.1396,0.1396,0,0.1409,0.141,0.141,0.1437,0.1438,0.1438,0.1439,0.1424,0.1423,0.1422,0,0,0,0,0,0,0,0,0,0,0,0,0,0.1364,0.1364,0.1396,0.1396,0.1396,0.1409,0.141,0.141,0.1437,0.1438,0.1438,0.1439,0.1424,0.1423,0.1422,0,0,0,0,0,0,0,0,0,0,0,0,0,0.1377,0.1364,0.1395,0.1412,0.1413,0.1409,0.141,0.141,0.1437,0.1438,0.1439,0.1439,0.1425,0.1423,0.1422,0.1395,0,0,0.1417,0.1417,0,0,0,0,0,0,0,0,0.1376,0.1378,0.1409,0.141,0.1412,0.1423,0.1393,0.1404,0.1437,0.1427,0.1439,0.144,0.142,0.1419,0.142,0.1395,0.1394,0.1417,0.1416,0.1416,0.1415,0,0,0,0,0,0,0,0.1375,0.1378,0.1401,0.1409,0.1411,0.1408,0.1411,0.1395,0.1418,0.1428,0.143,0.1432,0.1421,0.1421,0.142,0.1394,0.1417,0.1416,0.1415,0.1415,0.1442,0.1444,0,0,0,0,0,0,0.1375,0.1377,0.14,0.1401,0.1397,0.1408,0.1412,0.1418,0.1419,0.142,0.1432,0.1434,0.1423,0.1421,0.1419,0.145,0.1416,0.1415,0.1414,0.1441,0.1443,0.1444,0,0,0,0,0,0,0.1375,0.1377,0.14,0.1389,0.1392,0.1408,0.1415,0.1418,0.1431,0.1422,0.1423,0.1444,0.1424,0.1421,0.1432,0.1447,0.1414,0.1413,0.1439,0.1441,0.1443,0.1472,0,0,0,0,0,0,0.1374,0.1377,0.1386,0.1389,0.1393,0.1408,0.1414,0.1418,0.1431,0.1434,0.1432,0.1431,0.1424,0.1434,0.143,0.1445,0.1412,0.1437,0.144,0.1443,0.1469,0.1475,0.148,0,0,0,0,0,0.1373,0.1378,0.1386,0.1389,0.1403,0.1408,0.141,0.1423,0.143,0.1438,0.1448,0.1432,0.1451,0.1434,0.1429,0.1444,0.1435,0.1439,0.1442,0.1466,0.1474,0.148,0,0,0,0,0,0,0.1365,0.1382,0.139,0.1401,0.141,0.1413,0.142,0.1427,0.144,0.1447,0.144,0.144,0.1454,0.145,0.1431,0.1465,0.1444,0.1447,0.1464,0.1471,0.1476,0.1485,0.141,0,0,0,0,0,0.1367,0.1373,0.1391,0.1394,0.1405,0.1414,0.1419,0.143,0.1438,0.1445,0.145,0.1459,0.1462,0.1468,0.1467,0.1478,0.1487,0.1491,0.1496,0.1501,0.1508,0.1543,0.1552,0.1456,0.1456,0.1456,0,0,0.1365,0.137,0.1376,0.1392,0.1401,0.1417,0.142,0.1432,0.1451,0.1439,0.147,0.1469,0.1468,0.1487,0.1494,0.1487,0.1535,0.1505,0.1509,0.1514,0.1548,0.1557,0.1565,0.1458,0.1458,0.1458,0,0,0.1362,0.1371,0.1386,0.1395,0.1413,0.1418,0.1425,0.1446,0.1468,0.1486,0.1492,0.1508,0.151,0.1524,0.1527,0.1562,0.1557,0.1565,0.1603,0.1637,0.1645,0.1652,0.168,0.169,0.1576,0.1576,0.1576,0,0.1367,0.1376,0.1389,0.1405,0.1414,0.1421,0.1443,0.146,0.1483,0.1505,0.1503,0.1533,0.1529,0.1559,0.158,0.1573,0.1593,0.1572,0.1643,0.165,0.1657,0.1684,0.1694,0.1577,0.1577,0.1577,0.1577,0,0.1373,0.1388,0.1393,0.1417,0.1433,0.144,0.1473,0.1497,0.1515,0.1534,0.1574,0.1579,0.1602,0.1605,0.16,0.1652,0.165,0.1637,0.1621,0.1668,0.1694,0.1704,0.158,0.1579,0.1579,0.1578,0,0,0.1374,0.1397,0.1401,0.1418,0.1439,0.1453,0.1491,0.1529,0.156,0.1587,0.1631,0.1648,0.166,0.1666,0.167,0.1703,0.1763,0.1698,0.1699,0.1718,0.1843,0.1786,0.1791,0.1765,0.1766,0.1768,0.1844,0,0.1379,0.1405,0.1418,0.1444,0.1466,0.1488,0.152,0.1559,0.1589,0.1634,0.166,0.1691,0.1682,0.1699,0.1732,0.1751,0.179,0.1744,0.1803,0.1805,0.1741,0.1801,0.1663,0.1714,0.1853,0.1855,0.1856,0,0.1389,0.1402,0.143,0.1469,0.1484,0.15,0.1556,0.1589,0.1649,0.168,0.1722,0.1738,0.1793,0.1773,0.1846,0.182,0.1842,0.1855,0.1857,0.18,0.1765,0.1691,0.1726,0.1872,0.1871,0.1869,0.1868,0,0.1378,0.1417,0.1433,0.1441,0.1484,0.1512,0.1542,0.1603,0.1644,0.1715,0.1747,0.1803,0.1839,0.1878,0.1907,0.1887,0.1981,0.1952,0.1923,0.1919,0.1811,0.1794,0.2012,0.2012,0.2012,0.2011,0.2011,0,0.1367,0.1387,0.1429,0.1431,0.1467,0.1514,0.1559,0.1604,0.1673,0.1718,0.1772,0.1817,0.1869,0.1921,0.1939,0.1966,0.2011,0.1945,0.1941,0.1817,0.1801,0.194,0.193,0.2014,0.2014,0.2013,0.2013,0,0.1349,0.1366,0.1394,0.1441,0.1456,0.149,0.1558,0.1595,0.1668,0.173,0.1757,0.1846,0.1912,0.1956,0.2023,0.2002,0.2031,0.2029,0.1878,0.1854,0.1939,0.1931,0.2005,0.2004,0.2003,0.2002,0.2001,0,0.1338,0.1344,0.1392,0.1405,0.1422,0.1472,0.1501,0.158,0.1625,0.174,0.1771,0.1861,0.1903,0.1982,0.1974,0.1999,0.2037,0.1874,0.1802,0.1953,0.1942,0.1935,0.1928,0.1677,0.1674,0.1671,0.1669,0,0.1311,0.1327,0.1341,0.1372,0.1398,0.143,0.1487,0.1519,0.1612,0.1672,0.1751,0.1794,0.1871,0.1832,0.1861,0.1852,0.1853,0.1817,0.2036,0.169,0.1647,0.1635,0.1638,0.1644,0.1647,0.1649,0.165,0.1651,0.1289,0.1294,0.1307,0.1336,0.1356,0.1373,0.1384,0.1445,0.1494,0.1556,0.1651,0.167,0.1706,0.1672,0.1639,0.1617,0.1733,0.1657,0.1664,0.1675,0.1613,0.157,0.1542,0.1543,0.1545,0.1546,0.1548,0,0.1246,0.1263,0.1276,0.1288,0.1277,0.1323,0.1356,0.1343,0.1366,0.1444,0.1485,0.1384,0.1378,0.1423,0.1353,0.1352,0.1327,0.1299,0.1259,0.1286,0.1309,0.1226,0.1053,0.1051,0.105,0.1048,0,0,0.122,0.1206,0.121,0.1188,0.1211,0.1188,0.1194,0.1179,0.1205,0.119,0.1205,0.13,0.1382,0.119,0.1178,0.1107,0.1181,0.1064,0.1467,0.1447,0.1467,0.153,0.1435,0,0,0,0,0]},{"header":{"parameterUnit":"m.s-1","parameterCategory":2,"la1":30.2991,"la2":30.254,"lo1":-89.0895,"lo2":-89.0444,"dy":0.0017,"dx":0.0017,"nx":28,"ny":28,"refTime":"2025-01-31T03:00:00:Z","depth":"2","parameterNumber":3,"parameterNumberName":"V-component_of_CURRENTS"},"data":[0,0,0,0,0,0,0,0,0,0,0,0,0,0,0,0,0,0,0,0,0,0,0,0,0,0,0,0,0,0,0,0,0,0,0,0,0,0,0,0,0,0,0,0,0,0,0,0,0,0,0,0,0,0,0,0,0,0,-0.0009,-0.0009,0,-0.0026,-0.0026,-0.0026,-0.0056,-0.0057,-0.0057,-0.0058,-0.0089,-0.0089,-0.0089,0,0,0,0,0,0,0,0,0,0,0,0,0,-0.0017,-0.0017,-0.0009,-0.0009,-0.0009,-0.0026,-0.0026,-0.0026,-0.0056,-0.0057,-0.0057,-0.0058,-0.0088,-0.0089,-0.0089,0,0,0,0,0,0,0,0,0,0,0,0,0,-0.0023,-0.0017,-0.0009,-0.0025,-0.0027,-0.0026,-0.0026,-0.0027,-0.0056,-0.0057,-0.0058,-0.0058,-0.0088,-0.0089,-0.009,-0.0081,0,0,-0.0091,-0.0092,0,0,0,0,0,0,0,0,-0.0023,-0.0023,-0.0023,-0.0024,-0.0026,-0.0038,-0.004,-0.0045,-0.0056,-0.0047,-0.0058,-0.0058,-0.0071,-0.0074,-0.0077,-0.0082,-0.0083,-0.0092,-0.0092,-0.0092,-0.0092,0,0,0,0,0,0,0,-0.0022,-0.0023,-0.0018,-0.0023,-0.0024,-0.0036,-0.0037,-0.0041,-0.0057,-0.0048,-0.0049,-0.0048,-0.0073,-0.0077,-0.0078,-0.0084,-0.0092,-0.0092,-0.0092,-0.0093,-0.0109,-0.0109,0,0,0,0,0,0,-0.0015,-0.0022,-0.0017,-0.0018,-0.0024,-0.0035,-0.0037,-0.0035,-0.0057,-0.006,-0.0048,-0.005,-0.0075,-0.0078,-0.008,-0.0079,-0.0092,-0.0093,-0.0093,-0.0109,-0.0109,-0.0109,0,0,0,0,0,0,-0.0016,-0.0015,-0.0016,-0.0019,-0.002,-0.0034,-0.0032,-0.0035,-0.0042,-0.0056,-0.006,-0.0052,-0.0076,-0.0079,-0.0088,-0.008,-0.0093,-0.0094,-0.0109,-0.0109,-0.0109,-0.0073,0,0,0,0,0,0,-0.0016,-0.0015,-0.0015,-0.0019,-0.0019,-0.0014,-0.0031,-0.0035,-0.0039,-0.0042,-0.0061,-0.0064,-0.0077,-0.0087,-0.0089,-0.0081,-0.0094,-0.0109,-0.0109,-0.0109,-0.0074,-0.0071,-0.0069,0,0,0,0,0,-0.0016,-0.0007,-0.0015,-0.0014,-0.0018,-0.0013,-0.0015,-0.0028,-0.0039,-0.0038,-0.0055,-0.0064,-0.0089,-0.0087,-0.0089,-0.0082,-0.0109,-0.0109,-0.0109,-0.0075,-0.0072,-0.0069,0,0,0,0,0,0,-0.0008,-0.0009,-0.0018,-0.001,-0.0012,-0.0018,-0.0017,-0.0026,-0.0038,-0.0042,-0.0062,-0.0066,-0.0072,-0.0084,-0.0081,-0.0089,-0.0101,-0.0102,-0.0074,-0.0072,-0.007,-0.0057,-0.0095,0,0,0,0,0,-0.0006,-0.0001,-0.0005,0.0002,0.0001,-0.0009,-0.001,-0.0016,-0.0025,-0.0032,-0.0047,-0.0063,-0.0072,-0.0078,-0.0088,-0.0089,-0.0098,-0.0088,-0.0086,-0.0084,-0.0076,-0.0089,-0.0087,-0.011,-0.011,-0.011,0,0,-0.0002,0.0,0.0001,0.0003,-0.0,0.0007,-0.0012,-0.0007,-0.0003,-0.0032,-0.0036,-0.0054,-0.0071,-0.0075,-0.0079,-0.0084,-0.0082,-0.0084,-0.0082,-0.0075,-0.0089,-0.0086,-0.0084,-0.011,-0.011,-0.011,0,0,0.0018,0.0012,0.0022,0.0024,0.0025,0.0021,0.0023,0.0015,0.0008,0.0004,-0.0017,-0.0032,-0.0047,-0.0058,-0.0065,-0.0057,-0.007,-0.0063,-0.0039,-0.0052,-0.005,-0.0048,-0.0053,-0.0052,-0.0062,-0.0062,-0.0061,0,0.0021,0.0038,0.0027,0.0041,0.0046,0.0029,0.0044,0.0038,0.0027,0.0025,0.0007,-0.0019,-0.0037,-0.0037,-0.0039,-0.005,-0.0058,-0.0045,-0.0048,-0.0046,-0.0045,-0.005,-0.005,-0.006,-0.006,-0.006,-0.006,0,0.0052,0.0062,0.0072,0.0081,0.0084,0.0097,0.0089,0.0087,0.0072,0.0063,0.0053,0.0023,0.0009,-0.0002,-0.0018,-0.0018,-0.0026,-0.0042,-0.005,-0.004,-0.0047,-0.0047,-0.0057,-0.0058,-0.0058,-0.0059,0,0,0.0064,0.0088,0.0091,0.0105,0.0109,0.0118,0.0125,0.0129,0.0138,0.0111,0.0118,0.0087,0.0065,0.0055,0.003,0.0015,0.0012,-0.0008,-0.001,-0.0005,-0.0009,-0.0025,-0.0026,-0.0005,-0.0005,-0.0005,-0.0015,0,0.0091,0.013,0.0131,0.0164,0.0182,0.0172,0.0182,0.0181,0.0171,0.0172,0.0137,0.013,0.0089,0.0081,0.0061,0.0027,0.0013,0.0017,-0.0025,-0.0026,-0.0036,-0.0027,-0.0017,-0.0026,-0.0015,-0.0015,-0.0015,0,0.0119,0.0143,0.0182,0.0211,0.0217,0.0231,0.0248,0.0257,0.025,0.024,0.0223,0.0193,0.017,0.013,0.008,0.0085,0.0042,0.0011,0.0009,-0.0017,-0.0042,-0.0036,-0.0027,-0.0015,-0.0015,-0.0015,-0.0015,0,0.0141,0.0179,0.0214,0.0224,0.0249,0.0263,0.0274,0.0276,0.0294,0.0285,0.0296,0.0253,0.0242,0.0181,0.0109,0.0096,0.0055,0.0028,-0.0024,-0.0026,-0.0031,-0.0033,-0.0007,-0.0007,-0.0007,-0.0007,-0.0007,0,0.0173,0.02,0.0228,0.0248,0.0289,0.0292,0.0332,0.0336,0.035,0.0386,0.0334,0.0352,0.0254,0.0215,0.0137,0.0063,0.0076,-0.0013,-0.0029,-0.0019,-0.002,-0.0024,-0.0025,-0.0007,-0.0007,-0.0007,-0.0007,0,0.0193,0.0212,0.0255,0.0288,0.0303,0.0332,0.0379,0.0409,0.0414,0.0462,0.0462,0.0431,0.038,0.0281,0.019,0.011,0.0032,-0.0,0.0021,0.0008,-0.0047,-0.0047,-0.0056,-0.0057,-0.0058,-0.0058,-0.0058,0,0.0208,0.0232,0.0285,0.0317,0.0335,0.038,0.0415,0.0437,0.0478,0.0519,0.0549,0.0511,0.0497,0.0354,0.0202,0.0066,0.0043,-0.0018,-0.005,-0.0038,-0.0052,-0.0051,-0.005,-0.004,-0.004,-0.004,-0.0041,0,0.0235,0.0252,0.0289,0.0354,0.0399,0.0459,0.0514,0.0558,0.0598,0.0642,0.0694,0.0685,0.0544,0.0404,0.0203,0.0105,-0.0,-0.0027,-0.0012,-0.0033,-0.0025,-0.0038,-0.0037,-0.0042,-0.0042,-0.0042,-0.0042,-0.0042,0.0253,0.0285,0.0335,0.0399,0.0456,0.0536,0.0599,0.0662,0.0743,0.0818,0.0797,0.0791,0.0612,0.0359,0.0182,-0.0007,-0.0002,-0.0071,-0.007,-0.0068,-0.0069,-0.0062,-0.0086,-0.0086,-0.0086,-0.0086,-0.0086,0,0.0279,0.0318,0.0379,0.0462,0.0533,0.0558,0.0666,0.0733,0.0842,0.0889,0.0923,0.0763,0.0593,0.0394,0.0114,-0.0057,-0.0074,-0.0111,-0.0092,-0.009,-0.0088,-0.0089,-0.0112,-0.0112,-0.0113,-0.0113,0,0,0.0295,0.0355,0.0391,0.0512,0.0574,0.0683,0.0752,0.0851,0.0914,0.0971,0.0963,0.0905,0.0661,0.0454,0.0216,0.0059,0.0025,0.0023,0.0061,0.0115,0.0119,-0.0049,-0.0045,0,0,0,0,0]}],[{"header":{"parameterUnit":"m.s-1","parameterCategory":2,"la1":30.2991,"la2":30.254,"lo1":-89.0895,"lo2":-89.0444,"dy":0.0017,"dx":0.0017,"nx":28,"ny":28,"refTime":"2025-01-31T03:00:00:Z","depth":"4","parameterNumber":2,"parameterNumberName":"U-component_of_CURRENTS"},"data":[0,0,0,0,0,0,0,0,0,0,0,0,0,0,0,0,0,0,0,0,0,0,0,0,0,0,0,0,0,0,0,0,0,0,0,0,0,0,0,0,0,0,0,0,0,0,0,0,0,0,0,0,0,0,0,0,0,0,0.0533,0.0533,0,0.0569,0.057,0.057,0.0618,0.0618,0.0619,0.062,0.0682,0.0683,0.0684,0,0,0,0,0,0,0,0,0,0,0,0,0,0.0511,0.0511,0.0533,0.0533,0.0533,0.0569,0.057,0.057,0.0618,0.0618,0.0619,0.062,0.0681,0.0683,0.0684,0,0,0,0,0,0,0,0,0,0,0,0,0,0.0533,0.0511,0.0533,0.056,0.0563,0.0569,0.057,0.0571,0.0617,0.0618,0.0619,0.062,0.0681,0.0683,0.0684,0.0675,0,0,0.0689,0.069,0,0,0,0,0,0,0,0,0.0531,0.0534,0.0556,0.0558,0.0561,0.0588,0.0585,0.0606,0.0617,0.0598,0.062,0.0621,0.0651,0.0655,0.0662,0.0678,0.0681,0.0689,0.069,0.0691,0.0691,0,0,0,0,0,0,0,0.053,0.0532,0.0549,0.0556,0.0559,0.0573,0.0577,0.0589,0.0621,0.06,0.0603,0.0604,0.0653,0.066,0.0664,0.0682,0.0689,0.0691,0.0692,0.0692,0.0774,0.0775,0,0,0,0,0,0,0.0521,0.0531,0.0547,0.055,0.0547,0.0572,0.0577,0.058,0.062,0.0627,0.0604,0.0606,0.0657,0.0662,0.0666,0.0725,0.0691,0.0692,0.0693,0.0773,0.0774,0.0776,0,0,0,0,0,0,0.052,0.0522,0.0546,0.054,0.0544,0.0571,0.0574,0.058,0.0611,0.0622,0.063,0.0631,0.0658,0.0664,0.0705,0.0726,0.0693,0.0695,0.0771,0.0773,0.0775,0.08,0,0,0,0,0,0,0.0519,0.0522,0.0532,0.0539,0.0544,0.0569,0.0574,0.058,0.0608,0.0613,0.0648,0.0653,0.0659,0.0703,0.0707,0.0727,0.0696,0.077,0.0772,0.0774,0.0798,0.0803,0.0807,0,0,0,0,0,0.0519,0.0523,0.0533,0.0535,0.0554,0.0569,0.0574,0.0597,0.0609,0.0628,0.0655,0.0653,0.072,0.0705,0.0709,0.0731,0.0769,0.0772,0.0774,0.0796,0.0802,0.0807,0,0,0,0,0,0,0.052,0.0528,0.0539,0.0547,0.0567,0.0577,0.0595,0.0608,0.0643,0.0655,0.0668,0.0675,0.0717,0.0723,0.0706,0.0762,0.0744,0.0748,0.0759,0.0765,0.0769,0.0773,0.0697,0,0,0,0,0,0.0523,0.0529,0.0544,0.0552,0.0566,0.0585,0.0598,0.0614,0.0637,0.0655,0.0677,0.0703,0.0727,0.0746,0.0765,0.0795,0.0802,0.0813,0.0818,0.0821,0.0828,0.0852,0.0859,0.0785,0.0785,0.0784,0,0,0.0525,0.0529,0.0534,0.0554,0.0572,0.0591,0.0598,0.0623,0.0644,0.0655,0.0699,0.0719,0.0738,0.0775,0.0794,0.0786,0.0848,0.0825,0.0828,0.0833,0.0855,0.0862,0.0868,0.0786,0.0786,0.0786,0,0,0.0526,0.054,0.0551,0.0572,0.06,0.0606,0.0619,0.0646,0.0671,0.0709,0.0723,0.076,0.0794,0.0815,0.0828,0.0869,0.0868,0.0876,0.0905,0.0927,0.0933,0.0938,0.0962,0.0969,0.0881,0.0881,0.0881,0,0.0532,0.0545,0.0558,0.0581,0.0596,0.0616,0.0636,0.0661,0.0698,0.0723,0.0731,0.0795,0.0813,0.0856,0.0876,0.0879,0.0891,0.088,0.0932,0.0937,0.0942,0.0965,0.0972,0.0882,0.0882,0.0882,0.0882,0,0.0545,0.0567,0.0577,0.0606,0.0622,0.0645,0.0672,0.0705,0.0731,0.0753,0.0811,0.0839,0.0881,0.0891,0.09,0.0947,0.0944,0.0931,0.0915,0.0951,0.0973,0.098,0.0885,0.0884,0.0884,0.0883,0,0,0.0532,0.0577,0.0586,0.0608,0.064,0.0655,0.0691,0.073,0.0767,0.0808,0.0855,0.0903,0.0927,0.0944,0.0959,0.0982,0.1033,0.0978,0.0979,0.0996,0.1088,0.1014,0.1015,0.1027,0.1028,0.1029,0.109,0,0.0544,0.0581,0.0598,0.0636,0.0657,0.0689,0.0716,0.0756,0.0798,0.085,0.089,0.0941,0.0943,0.0976,0.1,0.1023,0.1053,0.1018,0.1056,0.1057,0.0981,0.1021,0.1033,0.1096,0.1097,0.1099,0.1099,0,0.0554,0.0575,0.0611,0.0654,0.0669,0.0695,0.0749,0.0781,0.0851,0.089,0.0947,0.0979,0.1037,0.1027,0.1089,0.1067,0.1088,0.1099,0.1101,0.1028,0.0996,0.1052,0.1113,0.1112,0.1111,0.111,0.1109,0,0.053,0.0586,0.0611,0.063,0.0678,0.0711,0.074,0.08,0.0839,0.0927,0.0969,0.1028,0.1077,0.1102,0.1137,0.1122,0.1191,0.1168,0.1123,0.1118,0.1154,0.1148,0.1216,0.1216,0.1215,0.1215,0.1215,0,0.0526,0.0557,0.0613,0.063,0.0673,0.0709,0.0765,0.0813,0.0879,0.0926,0.0995,0.1039,0.11,0.1144,0.1157,0.1163,0.1211,0.1138,0.113,0.1164,0.1158,0.116,0.1152,0.1218,0.1217,0.1217,0.1216,0,0.0503,0.0543,0.0576,0.0634,0.0664,0.0696,0.0777,0.0806,0.0887,0.0951,0.0982,0.1069,0.1127,0.1172,0.1225,0.119,0.1199,0.1192,0.124,0.1232,0.1107,0.1101,0.1142,0.114,0.1138,0.1137,0.1136,0,0.0495,0.051,0.0571,0.0593,0.063,0.0692,0.0718,0.0802,0.0834,0.0955,0.0969,0.107,0.112,0.1139,0.1182,0.1204,0.1191,0.1186,0.1134,0.1112,0.1101,0.1097,0.1093,0.1133,0.1133,0.1132,0.1132,0,0.0471,0.0495,0.0516,0.056,0.0601,0.0634,0.0691,0.0718,0.0806,0.0891,0.0951,0.0996,0.1063,0.1099,0.1134,0.1139,0.1176,0.1167,0.117,0.1122,0.1101,0.1091,0.1089,0.1125,0.1126,0.1127,0.1127,0,0.0447,0.0453,0.048,0.0518,0.0557,0.0562,0.0606,0.0651,0.0702,0.0841,0.0858,0.0963,0.1052,0.1067,0.1088,0.1098,0.1078,0.1031,0.104,0.1048,0.0986,0.0944,0.0923,0,0,0,0,0,0.0418,0.0416,0.0437,0.0462,0.049,0.0518,0.0571,0.0611,0.0718,0.0735,0.0801,0.086,0.092,0.0968,0.096,0.1035,0.107,0.1018,0.1017,0.1091,0.1099,0.1033,0,0,0,0,0,0,0.0394,0.0409,0.0414,0.0408,0.0417,0.0438,0.047,0.0534,0.0557,0.0675,0.0714,0.0801,0.087,0.0923,0.0944,0.0958,0.0936,0.1084,0.1082,0.1087,0.1094,0.11,0.1035,0,0,0,0,0]},{"header":{"parameterUnit":"m.s-1","parameterCategory":2,"la1":30.2991,"la2":30.254,"lo1":-89.0895,"lo2":-89.0444,"dy":0.0017,"dx":0.0017,"nx":28,"ny":28,"refTime":"2025-01-31T03:00:00:Z","depth":"4","parameterNumber":3,"parameterNumberName":"V-component_of_CURRENTS"},"data":[0,0,0,0,0,0,0,0,0,0,0,0,0,0,0,0,0,0,0,0,0,0,0,0,0,0,0,0,0,0,0,0,0,0,0,0,0,0,0,0,0,0,0,0,0,0,0,0,0,0,0,0,0,0,0,0,0,0,0.0169,0.0169,0,0.0161,0.0161,0.0161,0.0148,0.0147,0.0147,0.0147,0.0116,0.0115,0.0114,0,0,0,0,0,0,0,0,0,0,0,0,0,0.0153,0.0154,0.0169,0.0169,0.0169,0.0161,0.0161,0.0161,0.0148,0.0147,0.0147,0.0147,0.0116,0.0115,0.0114,0,0,0,0,0,0,0,0,0,0,0,0,0,0.0153,0.0154,0.0169,0.0163,0.0162,0.0161,0.0161,0.0161,0.0148,0.0147,0.0147,0.0147,0.0116,0.0115,0.0114,0.0111,0,0,0.0111,0.011,0,0,0,0,0,0,0,0,0.0153,0.0153,0.0164,0.0163,0.0163,0.0156,0.0144,0.0143,0.0148,0.0152,0.0147,0.0147,0.0128,0.0126,0.0123,0.011,0.0108,0.0111,0.011,0.011,0.0109,0,0,0,0,0,0,0,0.0153,0.0154,0.0165,0.0164,0.0163,0.0153,0.0153,0.0143,0.014,0.0152,0.0151,0.0152,0.0127,0.0125,0.0123,0.0108,0.0111,0.011,0.0109,0.0109,0.0079,0.0079,0,0,0,0,0,0,0.0158,0.0154,0.0165,0.0165,0.0159,0.0154,0.0154,0.0157,0.014,0.0138,0.0152,0.0151,0.0126,0.0124,0.0121,0.0114,0.011,0.0109,0.0108,0.0079,0.0079,0.0079,0,0,0,0,0,0,0.0158,0.0159,0.0166,0.016,0.016,0.0155,0.0159,0.0157,0.0153,0.0141,0.0138,0.0149,0.0126,0.0123,0.0109,0.0112,0.0108,0.0107,0.0079,0.0079,0.0079,0.01,0,0,0,0,0,0,0.0157,0.0159,0.0161,0.016,0.0161,0.0163,0.0159,0.0157,0.0155,0.0154,0.0138,0.0135,0.0126,0.011,0.0108,0.0111,0.0106,0.008,0.0079,0.0079,0.0099,0.0101,0.0101,0,0,0,0,0,0.0157,0.0163,0.0161,0.0162,0.0164,0.0163,0.0162,0.0156,0.0155,0.0152,0.014,0.0135,0.0107,0.0109,0.0106,0.0109,0.008,0.0079,0.0079,0.0099,0.01,0.0101,0,0,0,0,0,0,0.0157,0.0162,0.016,0.0168,0.0164,0.0161,0.016,0.0157,0.0146,0.0147,0.0132,0.0128,0.0117,0.0108,0.0112,0.0099,0.0093,0.0092,0.0109,0.011,0.0111,0.0118,0.0105,0,0,0,0,0,0.0159,0.0167,0.0164,0.0171,0.0168,0.0164,0.0162,0.0161,0.0154,0.0149,0.0137,0.0125,0.0114,0.0108,0.0097,0.009,0.0075,0.0089,0.009,0.0091,0.0094,0.007,0.007,0.0078,0.0078,0.0078,0,0,0.016,0.0166,0.0169,0.0171,0.0169,0.0171,0.0162,0.0164,0.0167,0.0148,0.0143,0.0127,0.0112,0.0104,0.0099,0.0097,0.008,0.0091,0.0092,0.0094,0.007,0.0069,0.0069,0.0078,0.0078,0.0078,0,0,0.0171,0.0172,0.018,0.0178,0.018,0.0178,0.0179,0.0174,0.0169,0.0163,0.015,0.0136,0.012,0.011,0.0103,0.0102,0.0085,0.0098,0.0111,0.0088,0.0087,0.0086,0.0065,0.0062,0.01,0.01,0.01,0,0.0172,0.0184,0.018,0.0187,0.019,0.0183,0.0189,0.0185,0.0176,0.0172,0.0164,0.0137,0.0123,0.0114,0.0113,0.0105,0.0088,0.0109,0.009,0.0088,0.0087,0.0066,0.0062,0.0101,0.0101,0.0101,0.0101,0,0.0187,0.0194,0.0199,0.0207,0.0208,0.0214,0.0209,0.0206,0.02,0.0194,0.0178,0.0156,0.014,0.0133,0.0124,0.0111,0.01,0.0093,0.0088,0.0088,0.0065,0.0061,0.0103,0.0102,0.0102,0.0102,0,0,0.0191,0.0207,0.0207,0.0216,0.0221,0.0225,0.0228,0.0227,0.023,0.0211,0.0206,0.0183,0.0168,0.0159,0.0142,0.0122,0.0098,0.0106,0.0104,0.0089,0.0046,0.0041,0.0036,0.0086,0.0085,0.0085,0.0034,0,0.0202,0.0224,0.0227,0.0245,0.0252,0.025,0.0255,0.0253,0.0245,0.0237,0.021,0.0199,0.0179,0.0172,0.0148,0.0111,0.0089,0.0113,0.0046,0.0045,0.0043,0.0032,0.0083,0.0031,0.003,0.0029,0.0029,0,0.021,0.0227,0.0248,0.0267,0.027,0.028,0.0288,0.0293,0.0279,0.0272,0.0253,0.0229,0.02,0.0182,0.0118,0.0133,0.0093,0.0061,0.0058,0.0044,0.0032,0.0031,0.0021,0.0022,0.0022,0.0023,0.0023,0,0.0216,0.0239,0.026,0.0266,0.0285,0.0294,0.0305,0.0302,0.0312,0.0295,0.0295,0.0251,0.0234,0.0176,0.0112,0.0113,0.0037,0.0029,-0.0015,-0.0016,-0.0005,-0.0003,-0.002,-0.002,-0.002,-0.0019,-0.0019,0,0.0224,0.0239,0.0266,0.0277,0.0306,0.031,0.0334,0.0337,0.034,0.0354,0.0315,0.0308,0.0232,0.018,0.0116,0.0039,0.0039,-0.0016,-0.003,0.0005,0.0008,-0.0008,-0.0006,-0.0021,-0.0021,-0.0021,-0.002,0,0.0221,0.0239,0.0266,0.0296,0.0311,0.0329,0.0367,0.0382,0.0382,0.0397,0.0394,0.035,0.0282,0.0201,0.0105,0.0052,-0.0025,-0.0053,-0.0008,-0.0019,-0.0065,-0.0062,-0.0109,-0.011,-0.011,-0.0111,-0.0111,0,0.0219,0.0235,0.0283,0.0308,0.0324,0.0358,0.0386,0.0404,0.0423,0.0422,0.0429,0.0371,0.033,0.0194,0.0103,-0.0024,-0.0041,-0.0082,-0.0077,-0.0065,-0.0075,-0.0071,-0.0066,-0.0112,-0.0112,-0.0112,-0.0112,0,0.0218,0.0238,0.0265,0.0321,0.0359,0.0402,0.0441,0.0461,0.048,0.0478,0.0458,0.0386,0.0308,0.0197,0.0099,0.0008,-0.0057,-0.0088,-0.0088,-0.0083,-0.0069,-0.0078,-0.0073,-0.0114,-0.0114,-0.0114,-0.0114,0,0.022,0.024,0.0285,0.0333,0.0384,0.0435,0.0456,0.0481,0.0501,0.0499,0.0489,0.0404,0.0352,0.0213,0.0122,0.0032,0.0008,-0.0022,-0.0025,-0.0024,0.0014,0.0045,0.002,0,0,0,0,0,0.0222,0.0252,0.0296,0.0356,0.0406,0.044,0.049,0.0506,0.0523,0.0516,0.0506,0.0432,0.0296,0.0233,0.0143,0.0105,-0.0012,-0.0005,-0.0048,-0.0124,-0.0122,-0.0092,0,0,0,0,0,0,0.0226,0.0267,0.0295,0.0365,0.0408,0.047,0.0505,0.0519,0.0514,0.0512,0.0441,0.0404,0.0271,0.0348,0.0139,0.0111,0.0069,-0.007,-0.0072,-0.0126,-0.0124,-0.0122,-0.009,0,0,0,0,0]}]]